www.pogodaiklimat.ru

Погода и климат >> Архив погоды >> Мексика >> Tulancingo


ПОГОДА в Tulancingo

  • Прогноз погоды в Tulancingo
  • Монитор погоды в Tulancingo
  • Климат города

АРХИВ ПОГОДЫ в Tulancingo

Время (UTC), дата Ветер
(напр.,м/с)
 
Видим.   Явления Облачность Т
(С)
Тd
(С)
f
(%)
Тe
(С)
Тes
(С)
Комфортность P
(гПа)
Po
(гПа)
Тmin
(С)
Tmax
(С)
R
(мм)
R24
(мм)
S
(см)
00 15.02 В 2 20 км мгла 6/3 600 м
[Sc Ac cuf]
+17.4 +11.7 69 +18 +18 1018.4 789.3 +5.8 +22.5
03 15.02 В 3 18 км мгла ясно +13.2 +10.0 81 +12 +12 1018.5 790.3
06 15.02 В 3 18 км мгла 3/3 300 м
[St]
+10.0 +8.0 87 +8 +8 1020.3 790.9 +5.8 +22.5
12 15.02 В 2 18 км мгла ясно +4.2 +2.7 90 +1 +1 1024.0 789.2 +3.8 +22.5
15 15.02 ЮВ 2 20 км ясно +12.0 +5.1 63 +11 +16 1026.8 790.4
18 15.02 ЮЗ 1 20 км ясно +21.6 +7.6 40 +23 +41 комфорт 1023.9 789.9 +3.8 +23.5
21 15.02 СВ 2 20 км 1/1 800 м
[Cu med, cong]
+24.4 +10.6 42 +26 +34 жарко 1015.8 786.4
00 16.02 СВ 2 20 км мгла 1/1 300 м
[St]
+19.7 +12.1 62 +22 +22 комфорт 1012.6 786.8 +3.8 +27.5
03 16.02 штиль 0 15 км {туман} ясно +13.0 +10.3 84 +13 +13 1013.8 788.7
06 16.02 штиль 0 15 км {туман} ясно +10.0 +7.3 83 +9 +9 1015.7 788.6 +3.8 +26.5
09 16.02 штиль 0 15 км {туман} ясно +7.7 +5.0 83 +7 +7 1017.9 787.6
12 16.02 штиль 0 15 км {туман} ясно +7.9 +2.1 67 +7 +7 1020.5 787.2 +7.1 +26.5
15 16.02 ЮЗ 1 20 км мгла ясно +13.3 +6.4 63 +14 +20 1022.7 788.1
18 16.02 СВ 1 20 км мгла ясно +23.5 +9.2 40 +24 +43 комфорт 1019.3 787.2 +7.5 +24.0
21 16.02 СВ 3 20 км 1/0
[Ci]
+24.4 +9.1 38 +25 +33 комфорт 1013.2 785.3
00 17.02 СВ 3 20 км мгла 1/0
[Ci]
+19.6 +7.4 45 +21 +21 комфорт 1010.9 785.7 +7.5 +26.6
03 17.02 В 1 18 км мгла ясно +14.2 +9.7 74 +15 +15 1011.5 787.0
06 17.02 СВ 1 18 км мгла ясно +9.8 +7.6 86 +9 +9 1013.9 787.2 +7.5 +26.6
09 17.02 В 1 18 км мгла ясно +7.6 +5.1 84 +7 +7 1016.6 786.5
12 17.02 СВ 1 18 км мгла ясно +5.6 +2.1 78 +5 +5 1020.7 787.2 +5.0 +26.6
15 17.02 штиль 0 20 км дымка 8/0
[Ci]
+9.8 +3.3 64 +9 +15 1023.5 787.8
18 17.02 ЮЗ 2 20 км мгла 8/0
[Ci]
+19.8 +12.1 61 +22 +35 комфорт 1021.7 787.4 +4.4 +21.0
21 17.02 СВ 1 18 км мгла 5/1 800 м
[Cu hum Ci fib]
+24.6 +8.1 35 +25 +35 комфорт 1015.7 785.6
00 18.02 СВ 1 20 км мгла 1/0
[Ci fib]
+19.8 +11.7 60 +22 +23 комфорт 1012.3 785.8 +4.4 +26.3
12 18.02 ЮВ 1 10 км дымка {туман} 10/10 300 м
[St]
+7.8 +5.3 84 +7 +7 1019.1 787.0 +7.5 +26.3
15 18.02 штиль 0 18 км {туман} ясно +9.8 +5.6 75 +9 +16 1021.6 787.5
18 18.02 штиль 0 18 км {туман} ясно +18.7 +8.0 50 +19 +41 опасность
простуды
1019.7 786.8 +7.0 +19.8
21 18.02 СВ 3 18 км мгла 1/1 800 м
[Cu hum]
+20.5 +11.4 56 +23 +30 комфорт 1014.7 784.7
00 19.02 СВ 2 18 км мгла 1/1 600 м
[St]
+17.1 +10.3 64 +17 +18 1012.3 784.7 +7.0 +22.5
12 19.02 штиль 0 15 км {туман} ясно +11.4 +5.9 69 +11 +11 1016.0 785.3 +11.0 +22.5
15 19.02 ЮВ 1 20 км мгла {туман} 4/4 800 м
[Cu med, cong]
+15.0 +7.5 61 +16 +19 1017.3 785.9
18 19.02 СВ 1 18 км мгла {туман} 3/3 800 м
[Cu med, cong]
+23.4 +9.3 41 +25 +38 комфорт 1014.2 784.9 +11.0 +24.8
03 20.02 штиль 0 18 км 9/9 800 м
[Sc]
+15.2 +10.9 75 +15 +15 1008.8 784.5
12 20.02 штиль 0 10 км мгла 4/4 600 м
[Frnb]
+11.2 +7.2 76 +11 +11 1014.4 784.6 +10.0 +25.0
15 20.02 ЮВ 1 15 км мгла 6/4 450 м
[St Ac trans Ci fib]
+14.5 +8.2 66 +15 +18 1017.0 787.1
18 20.02 СВ 1 18 км мгла 6/5 600 м
[Cu med, cong Ac trans]
+20.8 +10.5 52 +24 +32 комфорт 1015.5 785.9 +10.2 +22.1
21 20.02 ЮВ 1 18 км мгла {туман} 9/8 600 м
[Sc diur, vesp Ci]
+23.0 +10.7 46 +25 +27 комфорт 1010.1 783.4
00 21.02 ЮВ 1 15 км мгла {туман} 9/9 300 м
[Frnb]
+18.1 +12.6 70 +19 +19 1008.8 783.8 0.0
03 21.02 СВ 1 15 км мгла 8/8 450 м
[Frnb]
+16.2 +11.9 76 +17 +17 1010.3 785.6
06 21.02 ЮВ 1 15 км мгла 1/0 2000 м
[Ac cuf]
+14.2 +11.0 81 +15 +15 1012.9 786.8 +10.2 +25.2
09 21.02 15 км мгла ясно +11.2 +8.2 82 1014.0 785.9
12 21.02 СВ 1 15 км ясно +11.6 +6.8 72 +12 +12 1016.0 786.0 +10.9 +25.2
15 21.02 СЗ 1 18 км мгла ясно +14.4 +7.7 64 +15 +21 1019.3 787.9
18 21.02 СЗ 2 18 км мгла 3/3 800 м
[Cu hum]
+22.4 +9.3 43 +24 +35 комфорт 1018.0 787.9 +10.5 +23.1
21 21.02 ЮВ 1 20 км мгла {туман} 4/4 600 м
[Sc diur, vesp]
+23.2 +10.9 46 +25 +33 комфорт 1012.9 785.8

 

Местоположение метеостанции Tulancingo (Мексика): широта 20.08 долгота -98.37 высота над уровнем моря 2181 м.

В архиве по умолчанию представлена погода в Tulancingo за последнюю неделю. Архивные данные за месяц целиком и за предыдущие месяцы, начиная с января 2011 года, Вы можете получить, выбрав интересующий диапазон дат из раскрывающегося списка и нажав кнопку "Ввод!".

Внимание! Время в таблицах - всемирное. Для получения местного времени необходимо прибавить поправку, которая в Tulancingo равна -6 ч.

Смотрите также архив погоды в соседних городах и на ближайших метеорологических станциях:

Погода в Pachuca (Мексика) (40 км)
Погода в Tlaxcala (Мексика) (85 км)
Погода в Tlaxcala Airport (Мексика) (87 км)
Погода в Mexico City (Мексика) (114 км)
Погода в Puebla (Мексика) (117 км)
Погода в Institute of Geography (Мексика) (120 км)
Погода в Tuxpan (Мексика) (140 км)
Погода в Matlapa (Мексика) (145 км)
Погода в Cuernavaca (Мексика) (161 км)
Погода в Toluca (Мексика) (164 км)

Пояснения к столбцам:

Ветер - указаны скорость ветра в м/с - средняя за 10 мин, порывы в срок и между сроками (в фигурных скобках) и направление, откуда дует ветер: С - северный, СВ - северо-восточный, В - восточный, ЮВ - юго-восточный, Ю - южный, ЮЗ - юго-западный, З - западный, СЗ - северо-западный.
Видимость - горизонтальная дальность видимости в метрах или километрах. При видимости от 1 до 10 км при отсутствии осадков обычно наблюдается дымка, при ухудшении видимости до 1 км и менее - туман. В сухую погоду видимость может ухудшаться дымом, пылью или мглою.
Явления - указаны атмосферные явления, наблюдавшиеся в срок или в последний час перед сроком; фигурными скобками обозначены явления, наблюдавшиеся между сроками (за 1-3 часа до срока); квадратными скобками обозначены град или гололедные отложения с указанием их диаметра в мм.
Облачность - указаны через наклонную черту общая и нижняя облачность в баллах и высота нижней границы облаков в метрах; квадратными скобками обозначены формы облаков: Ci - перистые, Cs - перисто-слоистые, Cc - перисто-кучевые, Ac - высококучевые, As - высокослоистые, Sc - слоисто-кучевые, Ns - слоисто-дождевые, Cu - кучевые, Cb - кучево-дождевые. Подробнее классификацию облаков см. в Атласе облаков (PDF).
T - Температура воздуха - температура, измеренная на высоте 2 м над землей.
Td - Температура точки росы - температура, при понижении до которой содержащийся в воздухе водяной пар достигнет насыщения.
f - Относительная влажность воздуха - влажноcть воздуха, измеренная на высоте 2 м над землей.
Te - Эффективная температура - температура, которую ощущает одетый по сезону человек в тени. Характеристика душности погоды. При расчете учитывается влияние влажности воздуха и скорости ветра на теплоощущения человека.
Tes - Эффективная температура на солнце - температура, которую ощущает человек, с поправкой на солнечный нагрев. Характеристика знойности погоды. Зависит от высоты солнца над горизонтом, облачности и скорости ветра. Ночью, в пасмурную погоду, а также при ветре 12 м/с и более поправка равна нулю.
P - Атмосферное давление - приведенное к уровню моря атмосферное давление.
Po - Атмосферное давление - измеренное на уровне метеостанции атмосферное давление.
Tmin - Минимальная температура - минимум температуры воздуха на высоте 2 м над землей.
Tmax - Максимальная температура - максимум температуры воздуха на высоте 2 м над землей.
R - Количество осадков - Количество выпавших осадков за период времени, мм. При наведении курсора мыши на число - период времени, за который выпало указанное количество осадков.
R24 - Количество осадков - Количество выпавших осадков за 24 часа, мм.
S - Снежный покров - Высота снежного покрова, см. При наведении курсора мыши на число - состояние снежного покрова и степень покрытия местности в баллах.